Wind_Speed
35 36 37 39 40 41 43 46 48 50 51 52 51 51 51 51 52 52 52 52 52 52 51 50 49 48 48 47 46 46 45 44 43 42 42 41 41 40 39 38 38 37 36 36 38 41 43 44 44 46 48 51 52 54 53 52 51 49 49 50 52 54 54 50 48 47 47 48 50 51 51 51 50 49
36 37 38 39 40 41 42 43 45 47 49 51 52 53 55 55 56 57 57 57 57 56 55 53 50 48 49 49 48 46 46 45 44 43 42 43 42 42 41 40 39 38 37 37 37 38 41 44 45 46 47 48 49 50 51 52 53 53 53 52 52 54 56 57 55 53 52 51 51 52 53 53 52 52
37 38 39 40 41 41 42 43 44 45 46 47 48 50 52 54 55 56 57 57 57 56 54 53 51 50 50 49 49 47 47 46 45 44 43 43 43 43 42 42 41 40 39 39 38 38 39 42 45 48 48 48 48 48 48 49 50 52 55 55 53 53 54 57 59 58 55 54 53 53 54 54 54 54
38 39 39 40 41 42 43 44 45 46 47 47 48 48 49 50 51 51 52 51 51 50 50 49 50 50 51 50 50 49 48 48 46 45 44 44 44 44 43 42 41 42 41 41 41 40 39 40 43 47 50 50 49 49 49 49 50 51 54 55 55 54 53 55 57 59 59 56 56 56 56 55 55 56
39 40 41 41 42 43 44 45 45 47 48 48 49 50 50 50 50 50 49 49 49 48 48 48 48 49 50 50 50 49 49 49 48 47 47 46 46 45 44 43 42 42 43 43 43 43 42 41 41 44 48 51 52 52 51 51 52 52 53 55 55 55 55 55 56 58 60 61 61 60 59 58 57 58
42 42 42 43 43 44 45 46 46 47 47 49 49 50 50 50 50 50 49 49 49 50 50 50 49 49 49 49 49 49 49 50 51 50 49 49 49 48 47 46 45 43 43 43 44 44 45 44 44 43 45 49 52 55 55 55 55 54 55 55 56 57 57 57 57 58 60 63 65 65 64 63 62 62
45 44 44 44 44 45 46 46 47 46 47 47 48 48 48 48 49 49 49 50 51 51 51 52 52 51 51 51 51 51 51 52 53 53 53 52 51 51 50 49 49 47 46 46 45 46 46 46 46 46 46 46 49 53 56 58 59 59 58 57 58 58 59 59 59 59 60 62 66 69 70 69 67 66
48 47 46 45 45 46 46 47 47 47 47 48 47 47 47 47 47 47 47 48 50 51 51 52 53 53 53 54 54 54 55 55 54 54 54 53 53 54 53 52 52 52 51 50 49 49 49 48 48 49 49 49 48 50 53 57 60 63 63 62 61 61 61 62 62 62 62 62 64 68 72 74 73 72
50 50 49 48 47 47 47 48 48 47 48 48 47 47 48 48 48 47 47 48 50 51 51 52 53 54 54 54 54 55 56 56 55 55 55 54 55 56 56 55 55 55 55 54 54 53 53 53 52 52 52 53 52 52 52 54 57 61 64 66 66 66 65 64 64 64 65 65 65 66 69 73 76 77
53 52 52 51 50 50 49 49 48 48 48 48 48 48 48 49 48 47 48 50 50 51 52 52 53 53 53 53 52 53 55 55 54 55 56 56 56 57 58 58 58 58 58 58 58 57 57 57 57 56 56 57 56 56 56 56 57 59 61 64 67 69 70 69 68 68 67 68 68 68 68 69 72 76
55 55 54 53 52 51 51 50 50 49 49 49 49 49 48 50 50 48 48 50 50 51 52 52 53 53 53 53 52 53 54 54 54 54 55 56 57 58 59 59 59 59 60 60 61 61 60 61 62 62 62 62 62 62 61 60 60 61 61 62 65 68 71 73 73 73 72 71 71 71 72 72 71 72
55 54 54 54 54 53 52 52 51 51 51 50 50 50 49 49 50 49 48 47 48 49 50 50 51 52 52 52 52 53 53 54 54 54 55 55 56 57 58 59 60 60 60 61 62 63 62 62 63 64 65 65 66 66 66 65 65 65 64 65 65 66 68 71 74 76 77 77 76 75 75 75 75 75
52 53 55 56 56 55 54 54 52 51 51 50 50 50 49 48 48 48 47 46 46 47 48 48 49 50 51 51 51 52 52 52 53 54 55 55 56 57 59 60 60 60 60 60 61 62 62 61 61 63 63 64 65 66 66 67 68 68 68 68 68 69 69 71 72 74 76 78 80 80 80 80 79 79
52 55 57 57 57 56 55 54 52 50 50 51 51 49 48 46 45 46 46 46 46 46 47 49 49 50 50 50 50 50 51 50 51 53 54 55 56 56 57 58 59 58 58 58 58 60 61 60 60 61 62 63 64 65 65 66 67 69 70 70 71 71 72 73 74 74 76 77 79 81 82 83 84 83
52 53 54 55 55 55 55 54 52 50 49 50 50 48 45 44 44 45 45 45 45 46 47 49 50 50 51 50 50 51 50 49 48 50 52 54 55 55 55 56 57 57 55 54 56 58 60 59 59 61 63 64 64 64 65 66 67 69 70 71 72 73 74 75 76 77 78 78 79 80 81 83 84 86
50 51 52 53 53 53 53 53 52 50 49 48 49 48 46 47 48 48 47 47 48 50 52 53 53 53 52 50 49 49 48 46 46 48 50 52 53 54 54 55 56 58 56 54 54 57 61 61 60 62 65 66 66 66 66 67 68 69 70 72 73 75 76 76 77 78 79 80 81 82 82 82 83 84
50 51 51 51 51 51 50 51 51 50 50 51 51 51 51 52 52 51 51 53 54 57 59 58 55 54 51 48 47 47 47 48 49 50 53 55 55 55 55 55 56 58 58 57 56 57 60 62 63 65 67 69 69 70 70 70 70 70 72 73 75 76 77 77 78 79 80 81 82 83 84 84 85 85
48 49 52 53 53 53 51 51 51 51 53 56 57 56 56 57 57 57 58 60 61 63 63 60 57 55 52 49 49 51 52 54 55 55 57 59 58 58 58 57 57 59 60 60 59 59 61 63 65 67 70 72 73 73 74 74 73 74 75 76 77 79 79 79 79 80 81 82 83 83 84 85 86 87
47 48 51 55 56 56 56 55 54 54 56 59 61 61 61 62 64 65 65 65 65 64 63 62 60 59 57 55 56 57 58 59 61 60 58 57 57 58 60 60 61 62 63 63 62 62 63 65 67 68 71 73 75 77 78 78 77 78 78 79 80 80 81 81 82 82 83 84 85 85 85 86 86 87
58 58 60 63 64 63 61 60 60 60 61 63 64 65 66 67 69 70 68 66 65 64 64 64 63 62 61 62 62 63 63 64 64 62 58 55 55 56 59 61 62 64 65 65 65 63 64 66 67 69 71 74 76 78 80 81 81 82 82 82 82 83 84 85 87 88 88 89 89 89 89 89 89 88
70 71 72 73 72 71 69 68 68 68 69 69 69 68 68 69 71 71 71 69 67 66 66 66 66 66 66 66 67 67 68 67 65 62 60 57 55 55 57 59 61 63 65 66 66 65 65 66 67 68 70 72 75 77 80 82 84 85 86 86 87 88 90 91 91 91 91 91 91 91 91 92 92 91
74 75 74 73 74 76 76 75 75 74 73 72 70 70 70 71 71 72 72 72 71 70 69 68 68 68 68 69 69 69 68 67 64 61 60 58 57 57 58 59 60 63 65 66 66 65 65 66 67 68 68 70 73 76 78 80 83 85 86 87 88 89 90 91 90 90 90 91 91 92 92 93 94 94
75 76 75 73 74 76 76 75 75 75 74 72 71 71 72 72 73 73 73 73 73 73 73 71 70 70 71 71 70 69 68 66 64 62 61 60 59 59 59 60 61 63 65 65 64 64 63 64 66 66 66 66 69 73 75 77 79 81 82 83 84 85 86 86 87 88 89 90 91 92 93 94 95 96
73 74 75 76 77 78 76 73 73 73 72 72 71 71 71 72 73 74 75 74 73 73 73 73 73 73 73 73 72 70 69 67 66 64 63 63 61 60 60 60 60 61 62 62 62 61 61 62 63 64 64 64 65 68 72 74 76 77 77 78 79 80 81 82 83 85 86 89 91 92 93 94 95 96
70 72 73 75 77 77 76 73 72 71 70 70 70 69 70 71 72 73 75 74 73 71 71 71 72 72 72 72 71 69 67 65 64 63 62 62 61 59 58 58 58 59 60 61 60 59 59 60 61 63 64 65 65 67 69 72 75 75 75 75 76 77 79 81 83 85 87 88 90 92 93 94 94 95
69 70 71 71 71 72 71 70 69 68 68 68 67 67 67 67 67 68 70 71 71 70 68 68 68 69 68 67 66 65 64 62 61 61 61 61 61 60 60 59 60 61 63 63 63 62 61 62 64 65 66 67 68 68 69 71 73 74 74 74 76 78 80 82 84 85 87 88 89 90 91 92 93 93
69 71 72 70 69 69 69 70 69 69 68 67 67 67 66 65 65 65 65 67 68 67 66 65 65 66 66 65 65 64 64 63 62 61 61 62 63 64 64 63 64 65 66 67 67 66 66 66 67 68 68 69 69 69 68 69 70 72 73 75 77 79 81 82 83 85 86 87 88 89 89 90 90 91
71 73 72 71 71 71 71 71 71 70 70 69 69 68 67 66 66 66 66 66 66 67 66 65 65 65 66 66 66 66 66 66 65 64 64 65 66 67 68 68 69 69 69 68 68 68 68 67 68 68 68 67 66 66 66 68 70 72 73 75 77 79 80 81 82 83 84 84 85 85 85 86 87 88
72 72 71 71 72 72 73 73 72 72 71 70 70 69 68 68 68 68 68 68 68 68 67 67 67 67 68 69 69 69 69 69 69 68 67 68 69 70 71 72 72 72 72 70 69 67 66 66 67 67 66 65 63 63 64 67 70 72 72 73 76 78 79 79 79 79 79 79 79 79 79 79 80 80
74 72 72 73 73 73 74 74 74 73 72 72 71 71 71 71 70 70 70 70 69 69 69 69 69 70 70 71 72 72 72 73 72 71 71 72 73 73 74 74 74 74 74 72 69 67 65 65 65 64 63 63 63 64 64 66 68 70 71 71 72 74 75 75 74 73 72 72 72 72 71 71 71 71
80 78 78 77 77 76 77 76 76 75 74 74 73 73 72 72 72 71 72 71 71 71 71 72 72 72 73 74 75 75 76 75 75 74 75 75 75 75 74 73 73 73 72 71 69 66 63 61 61 61 61 62 63 63 63 63 64 67 68 68 68 68 69 68 67 66 65 64 65 65 65 64 64 64
87 85 84 83 82 81 80 79 78 77 76 75 75 74 73 73 72 73 73 73 72 73 73 74 74 75 76 77 77 78 78 78 77 77 77 76 75 74 73 72 71 70 69 69 67 63 59 58 59 60 60 61 61 61 60 61 61 62 63 63 62 61 61 60 60 61 60 60 60 60 60 59 58 59
90 89 88 87 86 84 83 81 80 78 77 76 75 74 73 73 73 73 74 73 73 74 75 75 76 77 78 79 79 79 78 78 79 78 78 76 75 74 72 71 70 69 67 66 64 61 58 58 58 58 58 57 58 57 57 57 57 57 56 56 56 56 55 55 55 56 56 56 56 56 55 53 53 54
91 91 90 89 88 87 86 84 81 79 78 77 76 75 74 74 74 74 74 74 74 74 75 76 77 78 79 78 78 78 78 78 78 78 77 76 75 74 72 71 70 67 63 61 60 58 57 56 55 54 54 54 54 52 51 52 53 52 51 51 51 51 51 52 52 52 52 51 51 51 50 49 49 51
91 91 90 90 90 89 87 85 82 81 80 79 78 77 76 75 75 75 74 74 74 74 75 76 77 77 78 78 78 78 78 78 78 77 76 75 74 72 71 69 67 63 60 58 56 54 53 52 51 50 50 50 49 48 46 47 49 49 49 49 47 46 48 49 49 48 48 47 46 46 46 46 46 46
91 91 91 91 90 89 87 85 83 82 81 80 79 78 77 76 75 75 74 73 73 74 75 76 77 77 77 77 77 77 77 77 77 76 76 74 72 70 69 66 62 58 56 54 52 51 49 48 47 47 46 46 46 45 44 43 44 45 46 47 46 44 45 46 45 44 43 42 41 41 41 41 41 42
91 91 91 91 90 88 87 85 84 82 82 81 80 79 77 76 75 75 74 73 73 74 75 75 76 76 77 77 76 76 76 76 76 75 74 72 69 67 65 62 57 54 52 50 48 47 46 45 43 43 43 44 44 44 43 41 40 40 41 43 43 43 43 42 41 39 39 38 37 37 37 37 37 38
90 90 90 91 90 88 86 85 85 84 82 81 80 78 76 75 75 75 74 73 74 74 76 76 77 77 76 76 76 76 75 75 74 72 71 69 66 63 61 57 53 50 48 46 45 44 43 42 41 40 40 41 41 42 41 40 38 37 37 38 39 40 39 37 36 34 34 34 34 34 33 33 33 34
86 87 88 89 88 87 86 86 86 84 83 81 79 77 76 75 75 75 74 74 74 75 76 77 77 77 77 76 76 75 74 72 71 69 68 65 62 58 55 52 48 46 44 42 41 41 40 39 38 38 38 38 39 39 39 39 38 36 34 33 34 36 35 33 32 31 31 31 31 30 30 30 30 30
82 82 83 85 85 84 84 85 84 83 82 80 78 77 76 76 76 76 75 74 75 76 76 76 76 76 75 75 74 72 71 69 67 65 63 59 55 52 50 47 44 43 41 39 39 38 37 37 36 36 36 36 36 36 37 37 36 35 32 30 31 31 30 29 29 29 28 27 27 28 27 27 27 28
78 78 78 78 78 78 79 80 79 79 78 77 76 76 76 76 77 76 74 73 74 74 74 73 73 73 72 71 70 68 66 64 61 58 55 52 49 47 45 43 41 40 38 37 36 35 35 35 35 34 34 33 33 33 34 34 33 32 31 29 28 28 27 26 27 27 26 25 25 25 25 25 25 25
73 73 72 70 69 70 71 71 72 72 72 72 72 71 72 74 74 73 71 71 71 70 69 69 69 68 67 66 64 62 59 56 53 51 49 47 45 44 42 40 38 37 35 34 33 33 33 33 33 32 32 32 31 31 31 31 31 30 29 29 28 26 25 26 26 26 24 23 23 23 23 23 23 23
70 69 68 65 63 63 63 63 63 64 64 64 63 64 65 67 68 67 66 65 65 64 63 63 62 61 59 58 56 53 51 49 47 46 45 43 41 41 39 37 36 35 33 32 32 32 31 31 31 31 30 30 29 28 28 28 29 28 27 27 27 25 25 25 25 24 23 22 22 21 21 20 20 20
67 63 62 61 59 57 57 56 57 57 55 54 55 56 58 60 61 59 58 58 57 57 56 56 55 53 51 49 48 47 45 44 43 43 41 40 39 38 36 34 33 33 31 30 30 30 30 29 29 29 29 28 27 26 25 26 27 26 25 25 25 23 23 24 23 22 21 20 19 19 18 17 17 17
61 58 58 58 56 53 52 52 53 51 49 49 51 53 54 55 55 53 52 52 51 51 50 49 48 46 45 44 44 43 42 42 41 40 39 37 36 36 34 32 31 31 30 29 29 29 29 28 28 27 27 26 25 24 23 25 25 24 23 23 22 21 21 22 21 20 18 18 17 16 16 15 15 16
Wind_Direction
268 267 265 265 264 262 261 260 259 259 258 258 258 258 258 258 258 259 260 261 263 266 268 270 270 269 270 271 272 273 274 275 275 274 272 271 271 271 272 273 273 274 275 273 268 263 258 255 254 257 258 258 258 257 255 253 252 250 248 247 248 247 244 243 244 247 248 248 246 246 248 251 253 255
271 269 267 266 265 265 264 263 261 260 260 260 259 259 260 260 260 261 262 264 266 268 269 269 268 266 267 269 270 271 271 273 274 274 273 270 269 269 269 270 270 271 272 273 272 268 262 256 252 253 256 258 259 259 257 255 253 253 251 249 248 249 247 244 244 246 248 249 248 246 246 249 252 255
275 274 272 271 269 268 267 266 265 264 263 262 261 261 261 261 262 263 263 265 266 267 267 266 265 264 265 266 267 268 269 269 270 271 271 271 269 269 269 268 268 268 268 269 270 269 266 260 254 251 252 254 256 257 257 256 253 251 250 249 248 249 249 248 246 245 247 249 249 247 246 248 251 254
277 276 275 274 273 272 271 270 269 268 267 265 264 263 262 262 262 262 263 263 264 265 265 265 264 263 264 264 265 265 266 267 268 268 268 269 269 268 268 268 268 268 267 266 267 267 266 263 258 254 252 252 253 253 254 254 253 250 248 248 249 249 249 249 248 246 245 246 247 246 244 245 248 250
278 277 276 275 274 273 272 271 270 269 268 267 266 265 264 264 263 263 264 264 264 264 264 264 264 263 263 264 264 265 266 267 267 267 267 267 267 266 266 267 268 269 269 267 265 264 263 263 261 258 254 252 251 251 251 251 251 251 249 249 251 251 250 249 248 247 245 243 242 242 241 242 244 245
279 278 277 275 275 274 274 273 272 270 269 268 266 266 266 265 265 264 265 265 264 264 265 264 263 263 264 264 264 265 267 268 268 268 267 267 266 266 266 266 266 267 268 268 266 264 263 262 261 260 258 255 253 251 251 250 249 249 249 249 250 252 252 251 249 248 247 243 241 240 240 240 241 243
279 278 277 275 275 274 274 273 273 272 270 269 267 267 266 266 265 264 265 265 265 265 266 266 265 265 265 265 266 266 266 267 268 269 269 268 268 267 267 267 267 266 266 267 267 266 264 263 262 261 259 258 256 254 252 251 250 249 248 248 248 249 250 251 251 250 249 247 243 241 240 240 240 241
279 278 277 276 276 275 274 274 273 272 271 269 268 267 267 267 266 266 265 266 266 266 266 266 266 266 266 266 267 266 266 265 266 267 268 269 268 267 267 267 267 267 266 266 266 266 266 264 263 261 260 258 258 257 255 253 251 250 249 248 248 248 248 249 250 250 251 250 247 244 242 241 241 241
280 280 280 279 279 278 277 276 275 273 272 271 270 269 269 268 266 266 266 266 266 267 266 266 266 266 267 267 266 266 265 265 265 266 266 266 266 267 266 265 265 266 266 266 265 265 266 266 264 262 260 258 257 257 257 256 255 253 251 250 250 249 249 248 249 249 250 250 250 249 246 244 243 243
282 282 283 283 283 282 281 279 277 275 274 273 273 271 271 270 268 266 266 266 266 266 266 266 266 266 266 265 265 265 265 264 265 265 265 265 265 265 265 264 263 263 264 264 264 264 264 265 264 263 261 259 258 258 258 258 258 256 255 253 252 251 250 250 249 249 249 249 250 250 250 248 247 245
282 283 284 284 284 283 281 279 277 276 276 275 274 273 272 272 271 269 267 267 266 265 265 265 266 266 265 264 264 264 264 264 264 265 265 265 265 265 264 264 264 263 263 264 264 263 263 264 264 264 263 261 260 260 260 259 259 258 257 256 255 254 253 251 251 250 249 249 249 250 250 250 250 249
282 283 284 285 284 282 281 279 278 278 278 277 276 274 273 272 271 269 268 267 267 266 265 264 264 265 265 265 264 264 264 265 265 265 265 265 265 265 265 264 264 264 264 264 264 264 263 263 264 264 265 265 264 263 263 262 261 260 259 258 257 256 255 254 253 252 251 250 250 250 250 251 251 251
282 284 285 285 284 283 281 280 279 279 278 277 274 272 270 269 268 268 268 267 267 267 267 265 264 264 265 265 266 265 265 265 265 265 265 265 265 265 266 265 264 264 264 264 265 264 264 263 263 263 264 264 265 265 264 264 263 262 260 259 258 258 257 256 255 254 253 252 251 251 250 251 251 251
284 287 287 286 284 283 281 279 279 278 276 274 272 270 269 268 267 267 267 267 267 267 267 266 266 265 266 266 266 266 267 267 267 268 267 267 267 266 266 267 266 265 264 264 264 265 264 263 262 262 262 262 262 263 264 264 264 263 262 261 260 259 258 258 257 257 256 255 254 253 252 251 251 251
286 286 284 283 283 282 280 280 279 277 275 274 271 269 268 268 270 269 268 267 268 268 268 269 269 268 268 268 267 266 266 268 269 270 271 270 269 268 267 267 266 265 263 262 263 263 264 263 261 261 261 261 261 261 262 263 263 264 263 262 261 260 259 259 258 258 258 257 256 255 254 253 252 252
286 283 281 279 278 278 277 278 278 278 276 273 270 269 267 268 270 270 268 268 269 270 272 273 274 272 269 267 266 265 265 268 271 274 275 273 270 269 269 268 267 266 264 263 262 262 263 263 262 260 260 260 260 260 260 260 262 263 264 264 264 263 261 260 260 259 259 259 259 258 257 256 255 254
287 283 281 278 276 275 274 274 274 275 274 273 272 271 269 267 267 267 266 268 270 272 275 276 277 275 269 264 263 264 265 270 275 278 280 277 272 269 269 268 267 267 267 266 264 264 264 264 263 262 261 261 260 260 259 259 260 261 262 263 264 264 264 263 263 262 261 261 260 260 259 259 258 257
284 282 281 280 278 275 273 271 271 271 272 273 274 274 272 269 268 268 268 269 270 273 275 276 277 276 270 263 263 266 268 272 276 279 280 278 274 270 268 267 266 266 266 266 266 266 266 266 266 265 264 263 262 261 260 260 260 260 260 261 262 263 264 264 264 264 264 264 263 262 262 261 260 259
272 275 278 279 277 274 271 271 270 269 270 272 273 273 272 271 271 271 271 271 273 274 275 276 276 276 273 267 266 268 271 274 278 279 278 276 272 270 269 268 267 267 267 267 266 266 266 267 267 267 267 266 265 264 263 262 262 261 261 261 261 262 263 264 265 265 266 266 266 265 265 264 263 262
268 270 273 274 273 271 271 272 272 271 271 272 272 272 272 272 273 274 275 276 276 277 277 277 276 276 274 271 270 271 273 277 280 280 277 273 270 267 266 266 266 266 267 267 266 265 265 266 266 267 267 268 267 267 267 266 265 264 262 262 262 262 264 265 266 267 267 267 267 267 266 266 266 265
270 271 272 271 269 268 269 271 272 272 273 274 274 273 272 272 273 276 278 279 279 279 278 277 277 277 276 274 273 274 276 279 280 280 278 275 272 269 267 266 265 266 266 266 265 265 264 264 264 264 265 266 266 266 267 267 267 266 265 265 264 265 266 268 268 268 268 268 267 267 267 266 266 266
270 271 271 269 266 265 266 268 270 271 272 274 274 273 273 273 274 275 277 279 280 280 279 279 278 278 278 277 277 277 278 279 279 279 279 278 276 274 272 270 269 269 269 268 267 267 266 265 264 264 264 264 265 264 265 265 266 266 266 266 267 267 268 268 268 268 268 268 267 267 266 266 265 265
267 267 266 265 264 264 265 267 268 268 270 270 271 271 272 273 274 275 276 277 278 279 280 281 280 280 280 280 280 281 281 282 282 282 282 281 279 278 277 275 274 274 273 272 271 271 271 270 269 267 266 266 267 267 266 265 264 265 266 266 267 267 267 267 267 267 267 266 266 265 265 264 264 264
264 262 261 261 263 265 267 268 268 269 269 270 270 271 271 273 274 275 275 276 276 277 279 280 280 281 281 281 282 282 283 283 283 283 283 282 281 279 278 277 276 275 275 275 274 274 273 273 272 272 270 269 269 269 270 269 268 267 267 267 267 268 268 267 266 266 265 264 264 264 264 264 264 264
263 263 263 263 264 265 267 267 268 269 271 271 272 272 273 273 273 274 275 276 277 278 279 279 279 279 280 280 281 281 282 282 283 283 283 282 281 280 279 279 278 278 277 276 275 274 274 273 273 272 272 271 269 269 270 271 271 271 271 271 270 270 269 268 267 266 265 265 265 265 266 266 266 266
265 265 266 266 266 267 267 268 269 270 271 272 273 274 273 273 273 274 275 276 277 278 279 279 279 279 279 280 280 281 282 282 282 282 283 283 283 283 283 282 282 282 282 281 280 279 278 277 276 275 274 274 273 272 271 271 271 272 272 272 271 270 269 268 268 268 268 268 268 268 268 268 269 269
267 267 267 268 268 268 269 270 271 272 272 272 273 273 274 274 275 275 275 276 277 277 278 278 279 279 280 281 282 282 282 282 283 283 283 283 284 284 284 284 283 283 282 282 282 282 281 280 279 277 276 276 276 275 275 275 274 273 273 272 271 269 269 269 269 269 269 269 270 270 270 271 271 271
266 266 267 268 269 269 269 270 271 271 272 272 273 274 275 276 276 276 276 276 277 278 278 279 280 281 281 282 282 282 282 283 283 283 284 284 285 285 285 285 285 284 283 283 282 282 281 280 279 278 277 276 276 276 276 276 274 273 272 272 271 271 271 271 271 271 271 271 271 271 271 271 271 270
265 265 266 266 267 267 268 268 269 269 270 272 273 274 275 275 276 276 277 277 278 279 279 280 280 280 280 281 281 282 282 283 283 284 284 285 285 286 286 286 286 286 285 284 283 283 282 282 281 280 279 278 276 275 273 272 271 271 271 271 271 272 272 272 272 273 273 273 273 272 272 271 271 270
269 269 268 268 268 268 268 268 268 269 270 271 272 273 273 274 275 276 277 277 278 279 279 280 280 280 280 281 281 282 282 283 284 285 286 286 286 286 286 286 287 287 287 286 286 285 284 284 283 282 282 280 277 275 273 272 272 272 272 272 272 273 273 274 274 274 274 274 274 273 273 272 271 271
274 273 272 271 271 270 269 269 269 270 270 271 271 272 272 273 274 275 276 276 277 278 278 279 279 279 280 280 281 282 283 284 285 286 286 286 286 286 286 286 286 286 287 287 287 287 286 285 284 283 281 279 277 276 275 275 274 274 274 275 275 275 275 276 276 276 275 275 274 274 273 273 273 272
274 274 273 273 272 272 271 271 270 270 270 271 271 271 272 273 274 274 275 275 276 277 277 278 278 279 279 280 281 282 283 284 285 285 285 286 286 286 287 287 287 288 289 289 290 289 288 287 285 282 280 279 278 278 278 277 276 276 277 277 277 276 276 277 277 276 276 275 274 274 274 273 273 272
272 272 272 272 272 272 272 272 271 271 272 272 272 273 273 274 274 274 274 275 275 276 276 277 278 278 279 280 281 282 283 284 285 285 286 287 288 288 289 289 290 291 291 291 292 291 289 286 283 282 280 280 279 279 279 279 279 278 278 279 278 278 277 276 275 275 274 274 274 274 274 273 272 271
268 269 270 271 272 272 272 272 272 273 273 274 274 274 274 274 274 275 275 275 275 276 276 277 277 278 279 280 281 282 283 283 284 285 286 287 288 289 290 292 292 293 293 292 291 290 288 286 284 283 282 281 281 281 281 282 281 280 279 279 278 278 278 277 275 274 274 274 275 275 274 273 271 270
267 268 268 269 270 270 271 272 273 273 274 274 274 274 274 274 274 274 275 276 276 276 277 277 277 278 279 280 281 282 282 283 285 286 287 288 289 291 292 293 293 293 293 293 291 290 288 287 286 285 284 283 283 282 282 282 282 283 282 280 279 278 277 276 276 276 276 275 275 274 274 272 271 271
266 267 267 267 268 269 271 272 272 273 273 273 273 274 273 273 273 274 274 275 275 276 276 277 278 279 280 280 281 282 283 284 285 286 287 289 290 292 293 293 293 294 294 293 292 291 289 288 288 287 286 285 284 283 282 282 282 283 283 283 282 280 278 277 277 278 278 277 276 274 273 273 272 272
264 265 266 267 268 269 270 271 271 271 271 271 271 272 272 273 274 274 275 275 275 276 276 277 278 278 279 280 281 282 283 284 285 287 288 290 291 292 293 294 294 295 294 293 292 291 290 289 288 287 286 286 285 285 284 283 282 282 282 283 283 281 280 279 280 280 280 279 278 276 275 274 273 273
262 264 265 266 268 269 270 270 270 270 270 270 271 271 272 273 274 274 275 276 276 276 277 277 278 278 279 280 281 282 283 285 286 287 289 291 292 293 293 293 294 293 292 292 291 290 289 288 288 287 286 286 286 287 286 285 283 282 281 281 281 281 281 282 283 283 282 281 280 279 278 276 275 275
263 264 265 266 267 268 268 269 269 270 271 271 272 272 272 273 273 273 274 274 275 275 275 276 277 278 279 280 281 282 284 285 287 288 289 290 291 291 291 291 292 291 291 291 290 288 288 288 287 287 287 287 287 288 288 288 287 285 282 281 282 282 284 287 287 285 284 283 282 281 280 279 278 277
265 264 264 264 265 266 266 267 268 269 270 271 272 272 272 272 272 272 273 273 273 273 274 275 276 277 278 279 281 282 284 285 286 287 288 288 289 289 289 290 290 290 290 289 288 288 288 287 287 287 287 287 288 289 289 290 290 289 288 286 286 287 290 292 290 288 287 287 286 284 283 282 281 279
264 264 264 264 265 265 266 266 267 268 269 270 271 271 271 271 271 271 271 271 271 272 273 274 275 276 277 278 280 281 283 284 284 284 285 286 287 287 288 289 289 289 289 288 287 287 287 287 288 288 288 288 289 290 291 291 292 293 294 293 292 293 295 295 292 291 291 291 289 287 286 284 283 281
265 265 266 266 266 266 266 267 268 269 270 270 270 270 269 269 269 269 269 269 270 270 271 272 273 274 275 277 278 280 281 281 281 282 283 285 286 286 287 288 289 288 288 287 287 287 287 288 289 289 289 290 291 292 293 294 294 296 298 298 298 299 300 297 295 294 295 294 291 289 288 286 285 284
264 264 266 267 267 267 268 269 269 269 270 270 270 268 267 266 266 267 267 267 268 269 270 270 271 273 274 276 277 278 278 279 280 281 283 284 285 285 286 288 288 287 287 287 286 286 287 288 289 290 290 291 292 294 295 296 296 299 301 301 301 303 302 298 296 297 298 296 293 291 289 288 287 285
262 263 265 267 267 267 267 268 268 268 268 268 267 266 264 264 264 265 266 267 268 269 269 270 271 272 273 274 275 276 277 278 280 281 282 284 284 285 286 287 286 286 286 285 286 286 287 288 289 290 290 292 293 295 296 296 297 300 302 301 301 301 299 297 297 299 298 297 294 292 291 289 287 284
263 263 263 264 265 266 265 265 265 266 266 265 263 261 261 262 264 265 266 267 268 268 269 270 272 273 273 274 275 276 277 278 279 280 282 283 284 284 285 285 285 284 284 284 285 285 286 288 289 289 290 292 294 296 297 297 298 301 302 300 300 299 297 295 296 298 298 296 294 291 289 287 284 281
Height
10614 10614 10613 10612 10612 10612 10612 10612 10612 10612 10612 10613 10613 10614 10614 10614 10614 10614 10614 10614 10613 10613 10613 10613 10613 10613 10613 10613 10612 10612 10612 10612 10612 10611 10611 10610 10610 10609 10609 10609 10609 10609 10609 10608 10608 10608 10609 10609 10610 10611 10611 10612 10614 10616 10617 10619 10620 10621 10622 10623 10624 10624 10625 10626 10627 10627 10628 10629 10630 10631 10632 10633 10635 10636
10610 10609 10609 10608 10608 10607 10607 10607 10606 10606 10606 10607 10607 10607 10608 10608 10608 10608 10608 10608 10607 10607 10607 10607 10607 10607 10607 10607 10607 10607 10607 10606 10606 10606 10606 10605 10605 10604 10604 10604 10604 10604 10604 10604 10604 10604 10604 10605 10605 10606 10607 10607 10608 10609 10611 10612 10613 10615 10616 10617 10618 10619 10620 10621 10622 10622 10623 10624 10625 10626 10627 10628 10629 10630
10606 10605 10605 10604 10603 10602 10602 10601 10601 10601 10601 10601 10601 10601 10601 10602 10602 10601 10602 10602 10601 10602 10602 10602 10602 10601 10601 10601 10601 10601 10601 10601 10601 10600 10600 10600 10600 10599 10599 10599 10599 10599 10599 10599 10599 10599 10599 10599 10600 10601 10601 10602 10603 10604 10605 10606 10607 10608 10609 10610 10612 10612 10613 10614 10615 10617 10617 10618 10619 10620 10621 10622 10623 10624
10602 10601 10600 10599 10598 10597 10597 10596 10596 10595 10595 10595 10595 10595 10595 10595 10595 10594 10595 10595 10595 10595 10595 10595 10595 10596 10596 10596 10596 10596 10596 10595 10595 10595 10594 10594 10594 10594 10594 10594 10594 10594 10594 10594 10594 10594 10594 10594 10594 10595 10595 10596 10597 10598 10599 10600 10601 10601 10602 10603 10605 10606 10607 10607 10608 10610 10611 10612 10613 10614 10615 10616 10617 10618
10597 10596 10595 10594 10593 10592 10591 10591 10590 10590 10589 10589 10589 10589 10588 10588 10588 10588 10589 10589 10589 10589 10589 10589 10589 10589 10590 10590 10590 10590 10590 10590 10589 10589 10589 10588 10588 10588 10588 10588 10589 10589 10588 10588 10588 10588 10588 10588 10588 10588 10589 10590 10590 10591 10592 10593 10594 10595 10595 10596 10597 10598 10599 10600 10601 10602 10603 10604 10606 10607 10608 10609 10610 10611
10592 10591 10590 10589 10588 10587 10586 10585 10584 10584 10584 10583 10582 10582 10582 10582 10582 10582 10583 10582 10582 10582 10582 10582 10583 10583 10583 10584 10584 10584 10584 10583 10582 10582 10582 10582 10582 10582 10582 10582 10583 10583 10582 10582 10582 10583 10583 10583 10583 10583 10583 10583 10583 10584 10585 10585 10586 10587 10587 10589 10589 10590 10591 10592 10593 10594 10595 10596 10597 10599 10600 10601 10603 10604
10585 10585 10584 10583 10582 10581 10580 10579 10578 10578 10577 10576 10576 10576 10576 10576 10576 10576 10577 10576 10575 10576 10576 10575 10576 10577 10577 10577 10576 10577 10576 10575 10575 10575 10575 10576 10576 10576 10576 10576 10575 10576 10577 10576 10576 10577 10577 10577 10578 10578 10577 10577 10577 10577 10577 10578 10578 10578 10579 10580 10581 10582 10582 10583 10584 10585 10586 10587 10588 10590 10591 10592 10594 10595
10578 10578 10577 10577 10576 10575 10574 10573 10572 10572 10571 10570 10570 10571 10570 10570 10569 10570 10571 10570 10568 10568 10569 10569 10568 10569 10570 10570 10569 10569 10568 10567 10568 10568 10569 10570 10570 10569 10570 10570 10569 10568 10569 10570 10570 10570 10570 10571 10571 10571 10571 10571 10570 10570 10570 10570 10570 10570 10571 10572 10573 10573 10574 10575 10575 10576 10577 10578 10579 10581 10582 10583 10584 10586
10570 10570 10570 10569 10569 10568 10567 10566 10565 10565 10564 10563 10564 10564 10563 10563 10563 10563 10564 10563 10561 10561 10561 10561 10561 10561 10561 10562 10562 10561 10559 10560 10561 10561 10562 10563 10562 10562 10562 10563 10562 10561 10561 10562 10563 10563 10563 10563 10563 10564 10564 10563 10563 10563 10563 10562 10562 10562 10563 10564 10565 10565 10566 10566 10567 10568 10568 10569 10570 10571 10572 10574 10575 10576
10562 10562 10561 10561 10561 10560 10559 10558 10557 10557 10557 10556 10556 10557 10556 10554 10555 10556 10556 10555 10555 10555 10554 10553 10553 10553 10554 10554 10554 10553 10552 10553 10554 10554 10553 10554 10555 10554 10554 10554 10555 10554 10554 10553 10554 10555 10555 10555 10555 10555 10555 10555 10555 10555 10555 10555 10554 10554 10555 10556 10556 10556 10557 10557 10558 10559 10559 10560 10561 10562 10563 10564 10565 10567
10554 10554 10553 10553 10553 10552 10551 10549 10549 10549 10549 10549 10548 10549 10549 10547 10546 10548 10548 10547 10547 10547 10547 10546 10546 10545 10545 10546 10547 10546 10544 10545 10547 10547 10546 10546 10547 10546 10546 10546 10546 10546 10546 10545 10545 10545 10547 10547 10546 10546 10546 10546 10546 10546 10547 10547 10546 10546 10547 10548 10547 10547 10547 10548 10548 10549 10550 10551 10552 10552 10553 10554 10555 10557
10546 10546 10546 10545 10544 10543 10542 10541 10541 10541 10541 10542 10540 10540 10541 10540 10538 10538 10539 10540 10539 10539 10539 10539 10538 10537 10537 10538 10539 10538 10538 10538 10538 10539 10539 10539 10538 10538 10538 10538 10538 10538 10538 10538 10536 10536 10538 10538 10538 10537 10537 10537 10537 10537 10537 10537 10536 10537 10538 10538 10538 10539 10538 10538 10538 10539 10540 10541 10542 10543 10543 10544 10545 10547
10539 10539 10539 10536 10535 10535 10534 10534 10534 10534 10534 10533 10532 10531 10532 10532 10531 10530 10530 10532 10532 10531 10530 10530 10531 10530 10530 10530 10530 10530 10530 10530 10531 10531 10531 10531 10531 10530 10529 10529 10530 10531 10530 10530 10529 10527 10528 10530 10529 10527 10528 10527 10527 10527 10527 10527 10526 10526 10527 10528 10528 10529 10529 10529 10529 10529 10530 10530 10531 10532 10533 10534 10535 10536
10533 10532 10530 10527 10527 10527 10526 10526 10527 10527 10526 10525 10524 10523 10523 10524 10524 10523 10523 10524 10524 10524 10523 10522 10522 10523 10522 10523 10523 10522 10522 10523 10523 10523 10522 10523 10523 10523 10522 10520 10520 10522 10524 10523 10521 10518 10519 10522 10522 10519 10518 10518 10518 10518 10517 10516 10516 10515 10516 10517 10518 10518 10519 10518 10519 10519 10520 10520 10521 10522 10523 10524 10525 10526
10527 10525 10521 10519 10519 10518 10517 10517 10518 10519 10518 10517 10517 10517 10517 10517 10517 10516 10516 10516 10516 10516 10516 10516 10516 10516 10516 10516 10516 10515 10515 10516 10516 10516 10515 10515 10515 10515 10515 10513 10511 10512 10515 10517 10515 10511 10509 10513 10514 10511 10508 10508 10509 10509 10508 10507 10506 10505 10505 10505 10506 10507 10507 10508 10509 10509 10509 10509 10510 10511 10512 10513 10514 10515
10518 10515 10513 10512 10511 10511 10510 10509 10509 10510 10510 10509 10509 10510 10510 10511 10510 10510 10509 10509 10508 10508 10509 10509 10509 10508 10509 10510 10509 10507 10508 10509 10510 10509 10509 10509 10509 10508 10507 10507 10504 10503 10506 10509 10509 10505 10501 10502 10505 10503 10500 10499 10500 10499 10499 10498 10498 10497 10495 10494 10494 10494 10495 10496 10498 10498 10498 10498 10499 10500 10501 10502 10503 10504
10508 10505 10503 10503 10503 10503 10503 10503 10502 10502 10502 10502 10502 10503 10503 10503 10503 10503 10502 10501 10501 10501 10500 10501 10501 10500 10501 10503 10502 10500 10501 10502 10502 10502 10502 10502 10502 10502 10501 10500 10498 10496 10497 10499 10501 10500 10495 10494 10495 10494 10491 10490 10490 10490 10489 10488 10489 10488 10487 10485 10484 10483 10483 10485 10486 10486 10486 10486 10487 10488 10489 10490 10491 10492
10502 10496 10493 10494 10496 10495 10495 10496 10496 10496 10495 10494 10495 10496 10496 10495 10495 10495 10494 10493 10493 10493 10492 10493 10493 10492 10493 10495 10495 10494 10494 10494 10494 10494 10494 10493 10494 10495 10494 10492 10491 10489 10488 10489 10492 10493 10489 10486 10486 10485 10482 10481 10480 10479 10478 10478 10478 10478 10477 10475 10474 10473 10473 10474 10474 10474 10474 10474 10474 10475 10476 10477 10478 10480
10496 10492 10489 10488 10489 10488 10487 10488 10489 10489 10488 10487 10487 10488 10488 10487 10486 10486 10485 10485 10485 10484 10484 10484 10484 10484 10484 10485 10486 10486 10486 10486 10486 10486 10486 10485 10485 10486 10485 10483 10482 10481 10479 10479 10482 10484 10482 10479 10478 10476 10473 10471 10470 10468 10467 10467 10467 10467 10466 10465 10464 10463 10462 10462 10462 10462 10462 10462 10461 10462 10463 10463 10464 10465
10490 10488 10485 10483 10481 10480 10479 10480 10481 10481 10480 10480 10480 10480 10479 10479 10477 10476 10476 10476 10477 10476 10476 10476 10475 10475 10475 10475 10476 10477 10477 10477 10476 10476 10476 10475 10476 10476 10476 10474 10472 10471 10469 10468 10471 10474 10473 10470 10468 10467 10464 10462 10460 10457 10455 10455 10455 10455 10454 10453 10452 10451 10451 10451 10450 10449 10449 10449 10449 10449 10450 10451 10450 10451
10483 10480 10477 10476 10475 10473 10471 10472 10472 10472 10471 10471 10471 10471 10471 10470 10468 10467 10466 10467 10468 10468 10468 10467 10467 10466 10466 10466 10466 10467 10467 10467 10467 10467 10466 10465 10465 10466 10465 10464 10463 10461 10458 10458 10459 10462 10462 10459 10458 10458 10455 10452 10450 10447 10444 10442 10441 10441 10441 10441 10440 10439 10438 10438 10437 10437 10436 10436 10435 10436 10437 10437 10437 10437
10473 10469 10467 10467 10466 10464 10462 10463 10464 10463 10463 10463 10463 10463 10462 10461 10460 10459 10458 10458 10458 10458 10458 10458 10458 10457 10457 10456 10456 10457 10457 10457 10457 10457 10456 10454 10454 10454 10453 10453 10452 10449 10446 10446 10447 10449 10449 10447 10446 10446 10446 10443 10438 10435 10433 10431 10428 10427 10427 10427 10427 10426 10425 10425 10424 10424 10423 10422 10422 10422 10422 10422 10422 10422
10461 10458 10456 10456 10455 10453 10452 10455 10456 10455 10455 10455 10455 10454 10454 10453 10452 10450 10449 10450 10450 10448 10448 10448 10448 10447 10447 10446 10445 10446 10446 10446 10446 10446 10444 10443 10443 10443 10442 10441 10440 10438 10435 10434 10435 10437 10437 10435 10433 10433 10435 10434 10428 10423 10420 10419 10417 10416 10416 10415 10415 10414 10413 10412 10412 10411 10410 10408 10407 10407 10406 10407 10407 10406
10448 10445 10445 10445 10443 10442 10443 10446 10446 10446 10446 10446 10446 10446 10446 10445 10444 10442 10439 10440 10441 10440 10440 10439 10438 10438 10437 10435 10435 10435 10436 10436 10435 10435 10433 10432 10431 10432 10431 10430 10429 10428 10425 10423 10424 10426 10426 10425 10423 10421 10421 10422 10420 10414 10409 10406 10404 10404 10405 10405 10403 10402 10401 10400 10398 10396 10395 10393 10392 10391 10391 10391 10391 10391
10436 10435 10435 10435 10434 10434 10435 10437 10437 10437 10437 10437 10437 10437 10437 10437 10437 10434 10431 10430 10431 10431 10431 10430 10429 10428 10427 10427 10426 10426 10426 10426 10425 10424 10422 10421 10420 10420 10419 10419 10418 10416 10413 10412 10413 10415 10415 10414 10412 10410 10408 10408 10408 10405 10401 10396 10392 10392 10393 10393 10392 10390 10387 10385 10383 10381 10380 10379 10378 10377 10377 10377 10377 10378
10428 10427 10426 10426 10426 10426 10426 10428 10429 10429 10429 10428 10428 10428 10427 10427 10428 10427 10425 10422 10421 10421 10422 10421 10419 10418 10418 10418 10417 10417 10416 10416 10416 10415 10413 10411 10410 10409 10408 10408 10407 10405 10402 10400 10400 10402 10403 10401 10399 10397 10396 10394 10393 10393 10391 10388 10383 10381 10381 10380 10378 10375 10372 10371 10369 10368 10367 10367 10366 10364 10364 10364 10364 10363
10419 10417 10417 10418 10418 10418 10418 10418 10419 10420 10419 10419 10418 10418 10418 10418 10418 10419 10418 10416 10413 10412 10412 10412 10411 10409 10408 10408 10408 10407 10406 10406 10406 10406 10404 10402 10400 10399 10398 10397 10396 10395 10393 10391 10389 10389 10390 10389 10386 10384 10383 10382 10381 10380 10379 10377 10374 10371 10368 10366 10363 10361 10359 10358 10358 10356 10355 10354 10353 10352 10351 10351 10350 10349
10409 10406 10409 10410 10410 10410 10409 10408 10409 10409 10408 10408 10408 10408 10408 10408 10409 10409 10409 10408 10406 10404 10404 10404 10403 10402 10400 10399 10398 10397 10396 10395 10396 10396 10395 10393 10391 10389 10388 10386 10384 10383 10382 10381 10380 10378 10378 10377 10374 10372 10371 10370 10370 10370 10368 10364 10360 10357 10356 10354 10350 10347 10347 10347 10345 10344 10343 10342 10341 10340 10339 10338 10337 10336
10397 10398 10401 10401 10400 10400 10399 10398 10398 10398 10398 10398 10398 10398 10398 10398 10398 10398 10398 10398 10397 10396 10396 10395 10394 10393 10392 10390 10389 10388 10386 10385 10385 10386 10385 10384 10382 10380 10378 10375 10373 10371 10369 10369 10368 10368 10367 10365 10362 10359 10358 10358 10358 10358 10356 10352 10347 10345 10345 10344 10339 10336 10335 10335 10334 10333 10332 10330 10328 10327 10326 10325 10324 10323
10386 10389 10391 10389 10389 10390 10388 10387 10388 10387 10388 10388 10388 10388 10388 10388 10389 10389 10388 10389 10388 10387 10386 10386 10385 10384 10382 10380 10379 10378 10377 10375 10375 10375 10375 10373 10371 10369 10367 10365 10362 10360 10357 10356 10356 10356 10356 10354 10351 10349 10347 10345 10343 10343 10342 10340 10337 10334 10332 10332 10330 10326 10324 10323 10322 10321 10320 10319 10316 10314 10314 10313 10313 10312
10373 10377 10378 10377 10378 10378 10377 10377 10377 10378 10378 10378 10378 10378 10379 10379 10380 10379 10379 10379 10379 10378 10376 10376 10375 10373 10372 10370 10369 10368 10366 10366 10365 10365 10364 10362 10360 10358 10357 10355 10353 10350 10347 10345 10344 10344 10345 10343 10340 10338 10335 10331 10329 10329 10329 10329 10327 10323 10320 10320 10319 10317 10313 10312 10310 10309 10308 10307 10305 10303 10302 10303 10303 10302
10359 10362 10363 10364 10365 10365 10365 10366 10367 10368 10368 10368 10368 10369 10370 10370 10371 10370 10369 10370 10370 10368 10367 10366 10365 10363 10361 10360 10359 10357 10356 10356 10355 10354 10352 10351 10349 10348 10346 10344 10343 10340 10338 10335 10332 10333 10333 10332 10328 10324 10322 10320 10319 10318 10318 10317 10315 10313 10309 10308 10308 10305 10303 10302 10301 10298 10297 10297 10295 10293 10293 10294 10294 10292
10347 10348 10349 10350 10351 10352 10353 10354 10355 10357 10358 10358 10359 10360 10361 10361 10361 10360 10360 10360 10360 10359 10357 10356 10354 10352 10350 10349 10348 10347 10346 10345 10344 10343 10341 10339 10338 10337 10335 10334 10332 10330 10328 10325 10323 10322 10321 10318 10316 10313 10311 10310 10309 10309 10308 10305 10303 10302 10301 10298 10296 10295 10294 10293 10292 10289 10288 10287 10285 10284 10285 10286 10285 10283
10334 10335 10336 10336 10337 10338 10339 10341 10343 10346 10347 10347 10348 10349 10351 10351 10351 10350 10350 10350 10350 10349 10348 10346 10344 10342 10340 10339 10338 10337 10336 10335 10333 10332 10331 10329 10328 10326 10325 10323 10321 10320 10318 10316 10314 10311 10308 10306 10305 10303 10302 10300 10299 10300 10299 10295 10292 10292 10291 10290 10288 10286 10284 10283 10282 10281 10281 10280 10278 10277 10276 10277 10276 10274
10321 10323 10325 10324 10324 10325 10326 10328 10332 10335 10336 10336 10337 10338 10340 10341 10341 10341 10341 10340 10340 10339 10337 10335 10334 10332 10331 10329 10328 10327 10326 10325 10323 10322 10321 10319 10318 10317 10315 10314 10311 10310 10309 10306 10304 10301 10299 10297 10296 10294 10292 10291 10290 10290 10290 10288 10284 10283 10281 10280 10280 10280 10277 10274 10274 10273 10273 10273 10272 10270 10268 10268 10267 10266
10308 10309 10310 10311 10312 10313 10315 10318 10321 10324 10325 10325 10326 10327 10329 10330 10331 10331 10332 10332 10331 10330 10328 10326 10324 10323 10321 10320 10319 10318 10317 10315 10314 10312 10311 10310 10309 10308 10306 10304 10302 10301 10299 10297 10294 10292 10290 10289 10288 10286 10284 10283 10281 10281 10282 10281 10279 10276 10274 10271 10271 10271 10269 10267 10267 10267 10265 10265 10264 10263 10261 10260 10260 10259
10295 10296 10296 10297 10299 10301 10304 10308 10310 10312 10313 10314 10315 10316 10318 10320 10320 10320 10321 10322 10322 10321 10319 10317 10316 10314 10313 10311 10311 10310 10308 10307 10305 10304 10303 10301 10300 10299 10296 10295 10294 10293 10291 10289 10287 10285 10283 10282 10281 10280 10277 10275 10274 10273 10273 10274 10273 10271 10269 10265 10263 10262 10261 10260 10261 10260 10259 10257 10257 10256 10255 10254 10253 10252
10284 10285 10286 10285 10286 10290 10294 10296 10297 10299 10301 10303 10305 10307 10309 10310 10311 10311 10311 10312 10311 10310 10308 10307 10305 10305 10304 10303 10302 10301 10300 10298 10297 10296 10294 10293 10291 10290 10288 10286 10286 10285 10283 10282 10280 10278 10276 10276 10275 10273 10271 10269 10267 10266 10265 10265 10266 10265 10264 10261 10257 10255 10254 10255 10255 10254 10252 10251 10250 10249 10248 10248 10247 10246
10273 10275 10276 10275 10276 10279 10283 10284 10286 10288 10289 10291 10294 10297 10299 10301 10302 10302 10302 10303 10301 10299 10298 10296 10295 10295 10294 10293 10292 10292 10291 10290 10289 10287 10286 10285 10284 10282 10281 10279 10279 10278 10277 10276 10274 10272 10270 10270 10268 10267 10265 10264 10262 10260 10258 10257 10257 10257 10257 10255 10252 10249 10249 10249 10248 10247 10246 10245 10244 10243 10243 10242 10241 10240
10261 10263 10264 10265 10267 10270 10272 10273 10274 10276 10279 10281 10284 10286 10289 10290 10291 10292 10293 10293 10291 10289 10288 10287 10287 10286 10285 10284 10284 10283 10282 10282 10281 10280 10278 10277 10276 10275 10274 10273 10272 10271 10270 10270 10268 10266 10265 10263 10262 10261 10260 10259 10257 10255 10253 10252 10250 10249 10249 10249 10247 10245 10244 10243 10242 10241 10240 10240 10239 10238 10238 10237 10236 10235
10247 10250 10252 10255 10257 10260 10262 10263 10264 10266 10269 10272 10274 10277 10279 10279 10279 10280 10282 10283 10281 10279 10279 10279 10278 10277 10276 10276 10276 10275 10275 10274 10273 10272 10271 10270 10269 10269 10267 10267 10266 10265 10264 10264 10262 10260 10259 10258 10257 10256 10255 10253 10252 10251 10249 10247 10245 10244 10243 10242 10241 10240 10239 10238 10237 10236 10236 10235 10235 10234 10233 10233 10232 10231
10237 10240 10242 10245 10249 10251 10252 10254 10256 10258 10260 10262 10265 10268 10269 10268 10267 10268 10271 10272 10271 10270 10270 10270 10269 10268 10269 10269 10268 10268 10268 10267 10266 10265 10264 10263 10263 10262 10261 10261 10260 10259 10259 10258 10256 10255 10254 10253 10252 10251 10249 10248 10247 10246 10244 10242 10241 10239 10238 10236 10236 10236 10235 10233 10232 10232 10232 10232 10231 10230 10229 10229 10228 10228
10228 10232 10233 10236 10241 10244 10245 10247 10249 10250 10251 10253 10255 10256 10257 10256 10256 10258 10260 10260 10261 10261 10261 10261 10260 10261 10261 10261 10261 10261 10260 10260 10259 10258 10257 10257 10256 10255 10255 10255 10254 10253 10253 10252 10251 10250 10249 10248 10247 10246 10245 10244 10243 10242 10240 10238 10237 10236 10234 10233 10232 10232 10231 10229 10229 10229 10229 10228 10227 10226 10226 10225 10225 10224
10219 10225 10227 10229 10233 10236 10238 10240 10240 10241 10243 10244 10245 10245 10245 10245 10246 10248 10250 10251 10252 10253 10252 10252 10253 10254 10254 10254 10254 10253 10253 10252 10252 10251 10251 10251 10250 10250 10250 10250 10249 10248 10248 10247 10246 10245 10244 10243 10242 10241 10240 10239 10239 10238 10236 10235 10233 10232 10231 10230 10229 10229 10228 10227 10226 10226 10226 10225 10224 10223 10223 10222 10222 10221
10211 10218 10221 10222 10224 10228 10230 10231 10231 10232 10234 10235 10235 10235 10236 10236 10238 10240 10242 10242 10243 10244 10244 10245 10245 10246 10247 10247 10247 10246 10246 10246 10245 10245 10245 10245 10245 10244 10244 10244 10244 10243 10242 10242 10241 10240 10239 10239 10238 10237 10236 10235 10235 10234 10233 10231 10230 10229 10229 10228 10227 10226 10225 10224 10224 10224 10223 10222 10221 10221 10220 10219 10219 10218